Location: �quirre
(50.4736°N, 2.2351°E)
Time: 00:00:52
(UTC+00:00)

NOSS 3-1 (A) - Pass Details

Date: 07 August 2020
Orbit: 745 x 1467 km, 63.4° (Epoch: 21 September)

Event Time Altitude Azimuth Distance (km) Brightness Sun altitude
Exits shadow 03:00:13 10° 189° (S) 2,380 5.1 -12.1°
Reaches altitude 10° 03:00:14 10° 189° (S) 2,377 5.1 -12.1°
Maximum altitude 03:05:20 42° 120° (ESE) 1,229 4.2 -11.5°
Drops below altitude 10° 03:11:14 10° 51° (NE) 2,760 7.5 -10.8°
Sets 03:14:10 0° 45° (NE) 3,832 8.9 -10.5°
